Wetterdaten: Donnerstag, 11.03.2010
Datum Zeit Temp. I. Temp. A. Boden 5 cm Feuchte A. Sonne Luftdruck Regen Wind
11.03.2010 00:00 23,5 C 0,3 C -2,5 C 58 % 0 % 1006 hPa 0,0 l/m 23,4 km/h (4 Bft)
11.03.2010 00:03 23,5 C 0,3 C -2,5 C 57 % 0 % 1006 hPa 0,0 l/m 19,8 km/h (3 Bft)
11.03.2010 00:06 23,5 C 0,3 C -2,5 C 57 % 0 % 1006 hPa 0,0 l/m 22,0 km/h (4 Bft)
11.03.2010 00:09 23,5 C 0,2 C -2,5 C 56 % 0 % 1006 hPa 0,0 l/m 20,0 km/h (4 Bft)
11.03.2010 00:12 23,5 C 0,2 C -2,5 C 58 % 0 % 1006 hPa 0,0 l/m 19,0 km/h (3 Bft)
11.03.2010 00:15 23,5 C 0,2 C -2,5 C 57 % 0 % 1006 hPa 0,0 l/m 23,3 km/h (4 Bft)
11.03.2010 00:18 23,6 C 0,2 C -2,5 C 57 % 0 % 1006 hPa 0,0 l/m 27,2 km/h (4 Bft)
11.03.2010 00:21 23,6 C 0,2 C -2,5 C 57 % 0 % 1005 hPa 0,0 l/m 22,5 km/h (4 Bft)
11.03.2010 00:24 23,6 C 0,2 C -2,5 C 58 % 0 % 1005 hPa 0,0 l/m 27,3 km/h (4 Bft)
11.03.2010 00:27 23,6 C 0,2 C -2,5 C 58 % 0 % 1005 hPa 0,0 l/m 24,2 km/h (4 Bft)
11.03.2010 00:30 23,6 C 0,2 C -2,5 C 59 % 0 % 1005 hPa 0,0 l/m 22,8 km/h (4 Bft)
11.03.2010 00:33 23,6 C 0,1 C -2,6 C 59 % 0 % 1005 hPa 0,0 l/m 29,4 km/h (5 Bft)
11.03.2010 00:36 23,6 C 0,1 C -2,6 C 58 % 0 % 1005 hPa 0,0 l/m 28,3 km/h (4 Bft)
11.03.2010 00:39 23,6 C 0,1 C -2,7 C 59 % 0 % 1005 hPa 0,0 l/m 31,6 km/h (5 Bft)
11.03.2010 00:42 23,6 C 0,1 C -2,7 C 58 % 0 % 1005 hPa 0,0 l/m 31,5 km/h (5 Bft)
11.03.2010 00:45 23,6 C 0,1 C -2,7 C 58 % 0 % 1005 hPa 0,0 l/m 27,6 km/h (4 Bft)
11.03.2010 00:48 23,6 C 0,1 C -2,7 C 59 % 0 % 1005 hPa 0,0 l/m 24,0 km/h (4 Bft)
11.03.2010 00:51 23,6 C 0,1 C -2,6 C 59 % 0 % 1005 hPa 0,0 l/m 23,1 km/h (4 Bft)
11.03.2010 00:54 23,6 C 0,1 C -2,5 C 58 % 0 % 1005 hPa 0,0 l/m 22,5 km/h (4 Bft)
11.03.2010 00:57 23,6 C 0,1 C -2,5 C 58 % 0 % 1005 hPa 0,0 l/m 18,6 km/h (3 Bft)
11.03.2010 01:00 23,6 C 0,1 C -2,4 C 58 % 0 % 1005 hPa 0,0 l/m 11,0 km/h (2 Bft)
11.03.2010 01:03 23,6 C 0,1 C -2,4 C 58 % 0 % 1005 hPa 0,0 l/m 16,3 km/h (3 Bft)
11.03.2010 01:06 23,6 C 0,1 C -2,4 C 58 % 0 % 1005 hPa 0,0 l/m 13,5 km/h (3 Bft)
11.03.2010 01:09 23,6 C 0,1 C -2,4 C 59 % 0 % 1005 hPa 0,0 l/m 15,5 km/h (3 Bft)
11.03.2010 01:12 23,6 C 0,1 C -2,4 C 58 % 0 % 1005 hPa 0,0 l/m 26,9 km/h (4 Bft)
11.03.2010 01:15 23,6 C 0,2 C -2,4 C 58 % 0 % 1005 hPa 0,0 l/m 24,0 km/h (4 Bft)
11.03.2010 01:18 23,6 C 0,1 C -2,5 C 59 % 0 % 1005 hPa 0,0 l/m 22,8 km/h (4 Bft)
11.03.2010 01:21 23,7 C 0,1 C -2,5 C 58 % 0 % 1005 hPa 0,0 l/m 17,6 km/h (3 Bft)
11.03.2010 01:24 23,7 C 0,1 C -2,5 C 60 % 0 % 1005 hPa 0,0 l/m 20,2 km/h (4 Bft)
11.03.2010 01:27 23,7 C 0,1 C -2,5 C 59 % 0 % 1005 hPa 0,0 l/m 23,0 km/h (4 Bft)
11.03.2010 01:30 23,7 C 0,1 C -2,5 C 59 % 0 % 1005 hPa 0,0 l/m 20,6 km/h (4 Bft)
11.03.2010 01:33 23,7 C 0,0 C -2,5 C 60 % 0 % 1005 hPa 0,0 l/m 22,8 km/h (4 Bft)
11.03.2010 01:36 23,7 C 0,0 C -2,5 C 60 % 0 % 1005 hPa 0,0 l/m 20,5 km/h (4 Bft)
11.03.2010 01:39 23,7 C 0,0 C -2,5 C 61 % 0 % 1005 hPa 0,0 l/m 26,1 km/h (4 Bft)
11.03.2010 01:42 23,7 C 0,0 C -2,5 C 60 % 0 % 1005 hPa 0,0 l/m 27,6 km/h (4 Bft)
11.03.2010 01:45 23,7 C 0,1 C -2,5 C 60 % 0 % 1005 hPa 0,0 l/m 22,2 km/h (4 Bft)
11.03.2010 01:48 23,7 C 0,0 C -2,5 C 61 % 0 % 1005 hPa 0,0 l/m 24,5 km/h (4 Bft)
11.03.2010 01:51 23,7 C 0,1 C -2,5 C 60 % 0 % 1005 hPa 0,0 l/m 30,1 km/h (5 Bft)
11.03.2010 01:54 23,7 C 0,0 C -2,5 C 61 % 0 % 1005 hPa 0,0 l/m 20,5 km/h (4 Bft)
11.03.2010 01:57 23,7 C 0,0 C -2,5 C 61 % 0 % 1005 hPa 0,0 l/m 23,2 km/h (4 Bft)
11.03.2010 02:00 23,7 C 0,0 C -2,5 C 61 % 0 % 1005 hPa 0,0 l/m 25,1 km/h (4 Bft)
11.03.2010 02:03 23,8 C 0,0 C -2,5 C 62 % 0 % 1005 hPa 0,0 l/m 19,3 km/h (3 Bft)
11.03.2010 02:06 23,7 C 0,0 C -2,4 C 62 % 0 % 1005 hPa 0,0 l/m 19,7 km/h (3 Bft)
11.03.2010 02:09 23,8 C 0,0 C -2,4 C 62 % 0 % 1005 hPa 0,0 l/m 18,3 km/h (3 Bft)
11.03.2010 02:12 23,8 C 0,0 C -2,4 C 61 % 0 % 1005 hPa 0,0 l/m 22,5 km/h (4 Bft)
11.03.2010 02:15 23,8 C 0,0 C -2,4 C 61 % 0 % 1005 hPa 0,0 l/m 22,5 km/h (4 Bft)
11.03.2010 02:18 23,8 C 0,0 C -2,4 C 61 % 0 % 1005 hPa 0,0 l/m 22,0 km/h (4 Bft)
11.03.2010 02:21 23,8 C 0,1 C -2,4 C 62 % 0 % 1005 hPa 0,0 l/m 24,3 km/h (4 Bft)
11.03.2010 02:24 23,8 C 0,0 C -2,4 C 61 % 0 % 1005 hPa 0,0 l/m 17,8 km/h (3 Bft)
11.03.2010 02:27 23,8 C 0,1 C -2,4 C 62 % 0 % 1005 hPa 0,0 l/m 22,1 km/h (4 Bft)
11.03.2010 02:30 23,8 C 0,1 C -2,4 C 61 % 0 % 1005 hPa 0,0 l/m 19,3 km/h (3 Bft)
11.03.2010 02:33 23,8 C 0,1 C -2,4 C 62 % 0 % 1005 hPa 0,0 l/m 24,8 km/h (4 Bft)
11.03.2010 02:36 23,8 C 0,1 C -2,4 C 63 % 0 % 1005 hPa 0,0 l/m 24,8 km/h (4 Bft)
11.03.2010 02:39 23,8 C 0,1 C -2,4 C 62 % 0 % 1005 hPa 0,0 l/m 27,9 km/h (4 Bft)
11.03.2010 02:42 23,8 C 0,1 C -2,4 C 62 % 0 % 1005 hPa 0,0 l/m 30,1 km/h (5 Bft)
11.03.2010 02:45 23,8 C 0,1 C -2,4 C 63 % 0 % 1005 hPa 0,0 l/m 26,9 km/h (4 Bft)
11.03.2010 02:48 23,8 C 0,1 C -2,3 C 64 % 0 % 1004 hPa 0,0 l/m 26,9 km/h (4 Bft)
11.03.2010 02:51 23,8 C 0,1 C -2,3 C 64 % 0 % 1004 hPa 0,0 l/m 28,4 km/h (4 Bft)
11.03.2010 02:54 23,8 C 0,1 C -2,3 C 63 % 0 % 1004 hPa 0,0 l/m 22,3 km/h (4 Bft)
11.03.2010 02:57 23,8 C 0,1 C -2,3 C 64 % 0 % 1004 hPa 0,0 l/m 32,2 km/h (5 Bft)
11.03.2010 03:00 23,8 C 0,1 C -2,3 C 64 % 0 % 1004 hPa 0,0 l/m 27,6 km/h (4 Bft)
11.03.2010 03:03 23,8 C 0,1 C -2,3 C 64 % 0 % 1004 hPa 0,0 l/m 23,3 km/h (4 Bft)
11.03.2010 03:06 23,8 C 0,1 C -2,2 C 65 % 0 % 1004 hPa 0,0 l/m 21,5 km/h (4 Bft)
11.03.2010 03:09 23,8 C 0,1 C -2,2 C 64 % 0 % 1004 hPa 0,0 l/m 1,5 km/h (1 Bft)
11.03.2010 03:12 23,8 C 0,1 C -2,1 C 65 % 0 % 1004 hPa 0,0 l/m 0,3 km/h (0 Bft)
11.03.2010 03:15 23,8 C 0,0 C -2,0 C 64 % 0 % 1004 hPa 0,0 l/m 0,3 km/h (0 Bft)
11.03.2010 03:18 23,8 C -0,2 C -1,9 C 62 % 0 % 1004 hPa 0,0 l/m 5,8 km/h (2 Bft)
11.03.2010 03:21 23,8 C -0,2 C -2,0 C 64 % 0 % 1004 hPa 0,0 l/m 14,3 km/h (3 Bft)
11.03.2010 03:24 23,8 C -0,2 C -2,0 C 63 % 0 % 1004 hPa 0,0 l/m 7,9 km/h (2 Bft)
11.03.2010 03:27 23,8 C -0,2 C -2,0 C 63 % 0 % 1004 hPa 0,0 l/m 9,3 km/h (2 Bft)
11.03.2010 03:30 23,8 C -0,2 C -2,0 C 64 % 0 % 1004 hPa 0,0 l/m 10,8 km/h (2 Bft)
11.03.2010 03:33 23,8 C -0,3 C -1,9 C 64 % 0 % 1004 hPa 0,0 l/m 4,4 km/h (1 Bft)
11.03.2010 03:36 23,8 C -0,3 C -1,9 C 64 % 0 % 1004 hPa 0,0 l/m 9,2 km/h (2 Bft)
11.03.2010 03:39 23,8 C -0,3 C -1,9 C 65 % 0 % 1004 hPa 0,0 l/m 5,0 km/h (1 Bft)
11.03.2010 03:42 23,8 C -0,3 C -1,8 C 65 % 0 % 1004 hPa 0,0 l/m 10,0 km/h (2 Bft)
11.03.2010 03:45 23,8 C -0,3 C -1,8 C 65 % 0 % 1004 hPa 0,0 l/m 1,2 km/h (1 Bft)
11.03.2010 03:48 23,8 C -0,3 C -1,7 C 66 % 0 % 1004 hPa 0,0 l/m 1,2 km/h (1 Bft)
11.03.2010 03:51 23,8 C -0,3 C -1,7 C 66 % 0 % 1004 hPa 0,0 l/m 3,6 km/h (1 Bft)
11.03.2010 03:54 23,8 C -0,3 C -1,7 C 66 % 0 % 1004 hPa 0,0 l/m 1,2 km/h (1 Bft)
11.03.2010 03:57 23,8 C -0,3 C -1,7 C 66 % 0 % 1005 hPa 0,0 l/m 1,2 km/h (1 Bft)
11.03.2010 04:00 23,8 C -0,3 C -1,7 C 66 % 0 % 1005 hPa 0,0 l/m 8,5 km/h (2 Bft)
11.03.2010 04:03 23,8 C -0,3 C -1,8 C 65 % 0 % 1005 hPa 0,0 l/m 8,5 km/h (2 Bft)
11.03.2010 04:06 23,8 C -0,3 C -1,8 C 66 % 0 % 1004 hPa 0,0 l/m 0,6 km/h (0 Bft)
11.03.2010 04:09 23,8 C -0,3 C -1,8 C 66 % 0 % 1004 hPa 0,0 l/m 16,2 km/h (3 Bft)
11.03.2010 04:12 23,9 C -0,2 C -1,9 C 68 % 0 % 1004 hPa 0,0 l/m 13,3 km/h (3 Bft)
11.03.2010 04:15 23,8 C -0,2 C -1,9 C 68 % 0 % 1004 hPa 0,0 l/m 13,3 km/h (3 Bft)
11.03.2010 04:18 23,9 C -0,2 C -1,9 C 68 % 0 % 1004 hPa 0,0 l/m 24,8 km/h (4 Bft)
11.03.2010 04:21 23,9 C -0,2 C -1,9 C 68 % 0 % 1004 hPa 0,0 l/m 20,5 km/h (4 Bft)
11.03.2010 04:24 23,9 C -0,2 C -1,9 C 68 % 0 % 1004 hPa 0,0 l/m 20,0 km/h (4 Bft)
11.03.2010 04:27 23,8 C -0,2 C -1,9 C 68 % 0 % 1005 hPa 0,0 l/m 21,0 km/h (4 Bft)
11.03.2010 04:30 23,9 C -0,2 C -1,9 C 70 % 0 % 1005 hPa 0,0 l/m 20,2 km/h (4 Bft)
11.03.2010 04:33 23,9 C -0,2 C -1,9 C 70 % 0 % 1005 hPa 0,0 l/m 18,8 km/h (3 Bft)
11.03.2010 04:36 23,9 C -0,2 C -1,9 C 70 % 0 % 1005 hPa 0,0 l/m 22,3 km/h (4 Bft)
11.03.2010 04:39 23,9 C -0,2 C -1,9 C 71 % 0 % 1005 hPa 0,0 l/m 18,8 km/h (3 Bft)
11.03.2010 04:42 23,9 C -0,2 C -1,9 C 72 % 0 % 1005 hPa 0,0 l/m 19,5 km/h (3 Bft)
11.03.2010 04:45 23,9 C -0,2 C -1,8 C 72 % 0 % 1005 hPa 0,0 l/m 16,2 km/h (3 Bft)
11.03.2010 04:48 23,9 C -0,2 C -1,8 C 72 % 0 % 1005 hPa 0,0 l/m 16,1 km/h (3 Bft)
11.03.2010 04:51 23,9 C -0,2 C -1,8 C 72 % 0 % 1005 hPa 0,0 l/m 10,8 km/h (2 Bft)
11.03.2010 04:55 23,9 C -0,2 C -1,8 C 73 % 0 % 1005 hPa 0,0 l/m 15,9 km/h (3 Bft)
11.03.2010 04:58 23,9 C -0,2 C -1,8 C 73 % 0 % 1005 hPa 0,0 l/m 15,9 km/h (3 Bft)
11.03.2010 05:01 23,9 C -0,3 C -1,7 C 73 % 0 % 1005 hPa 0,0 l/m 10,3 km/h (2 Bft)
11.03.2010 05:04 23,9 C -0,3 C -1,7 C 73 % 0 % 1005 hPa 0,0 l/m 10,3 km/h (2 Bft)
11.03.2010 05:07 23,9 C -0,3 C -1,7 C 74 % 0 % 1005 hPa 0,0 l/m 10,3 km/h (2 Bft)
11.03.2010 05:10 23,9 C -0,4 C -1,6 C 75 % 0 % 1005 hPa 0,0 l/m 10,3 km/h (2 Bft)
11.03.2010 05:13 23,9 C -0,5 C -1,7 C 76 % 0 % 1005 hPa 0,0 l/m 10,3 km/h (2 Bft)
11.03.2010 05:16 23,8 C -0,6 C -1,8 C 79 % 0 % 1005 hPa 0,0 l/m 10,3 km/h (2 Bft)
11.03.2010 05:19 23,7 C -0,6 C -1,8 C 80 % 0 % 1005 hPa 0,0 l/m 10,3 km/h (2 Bft)
11.03.2010 05:22 23,7 C -0,8 C -1,7 C 81 % 0 % 1005 hPa 0,0 l/m 10,3 km/h (2 Bft)
11.03.2010 05:25 23,8 C -0,9 C -1,7 C 81 % 0 % 1005 hPa 0,0 l/m 10,3 km/h (2 Bft)
11.03.2010 05:28 23,9 C -0,9 C -1,6 C 81 % 0 % 1005 hPa 0,0 l/m 10,3 km/h (2 Bft)
11.03.2010 05:31 24,0 C -1,0 C -1,6 C 83 % 0 % 1005 hPa 0,0 l/m 10,3 km/h (2 Bft)
11.03.2010 05:34 24,0 C -1,0 C -1,5 C 83 % 0 % 1005 hPa 0,0 l/m 4,2 km/h (1 Bft)
11.03.2010 05:37 24,1 C -1,1 C -1,5 C 83 % 0 % 1005 hPa 0,0 l/m 0,3 km/h (0 Bft)
11.03.2010 05:40 24,1 C -1,2 C -1,5 C 81 % 0 % 1005 hPa 0,3 l/m 0,0 km/h (0 Bft)
11.03.2010 05:43 24,1 C -1,2 C -1,4 C 81 % 0 % 1005 hPa 0,0 l/m 0,0 km/h (0 Bft)
11.03.2010 05:46 24,1 C -1,3 C -1,4 C 81 % 0 % 1005 hPa 0,0 l/m 0,0 km/h (0 Bft)
11.03.2010 05:49 24,1 C -1,3 C -1,3 C 81 % 0 % 1005 hPa 0,0 l/m 0,0 km/h (0 Bft)
11.03.2010 05:52 23,9 C -1,4 C -1,3 C 81 % 0 % 1005 hPa 0,0 l/m 0,0 km/h (0 Bft)
11.03.2010 05:55 23,8 C -1,4 C -1,3 C 83 % 0 % 1005 hPa 0,3 l/m 0,4 km/h (0 Bft)
11.03.2010 05:58 23,8 C -1,4 C -1,3 C 83 % 0 % 1005 hPa 0,0 l/m 0,1 km/h (0 Bft)
11.03.2010 06:01 23,7 C -1,4 C -1,3 C 84 % 0 % 1005 hPa 0,0 l/m 0,7 km/h (0 Bft)
11.03.2010 06:04 23,6 C -1,5 C -1,3 C 84 % 0 % 1005 hPa 0,0 l/m 3,8 km/h (1 Bft)
11.03.2010 06:07 23,6 C -1,6 C -1,3 C 85 % 0 % 1005 hPa 0,0 l/m 1,7 km/h (1 Bft)
11.03.2010 06:10 23,6 C -1,6 C -1,3 C 85 % 0 % 1005 hPa 0,0 l/m 1,7 km/h (1 Bft)
11.03.2010 06:13 23,6 C -1,7 C -1,3 C 85 % 0 % 1005 hPa 0,3 l/m 10,5 km/h (2 Bft)
11.03.2010 06:16 23,8 C -1,7 C -1,3 C 86 % 0 % 1005 hPa 0,0 l/m 0,6 km/h (0 Bft)
11.03.2010 06:19 23,9 C -1,8 C -1,3 C 86 % 0 % 1005 hPa 0,0 l/m 1,2 km/h (1 Bft)
11.03.2010 06:22 23,9 C -1,7 C -1,3 C 86 % 0 % 1005 hPa 0,0 l/m 4,2 km/h (1 Bft)
11.03.2010 06:25 24,0 C -1,6 C -1,3 C 85 % 0 % 1005 hPa 0,3 l/m 5,4 km/h (1 Bft)
11.03.2010 06:28 24,0 C -1,6 C -1,3 C 85 % 0 % 1005 hPa 0,0 l/m 0,9 km/h (0 Bft)
11.03.2010 06:31 23,9 C -1,7 C -1,3 C 86 % 0 % 1005 hPa 0,0 l/m 2,7 km/h (1 Bft)
11.03.2010 06:34 23,9 C -1,7 C -1,3 C 86 % 0 % 1005 hPa 0,0 l/m 0,0 km/h (0 Bft)
11.03.2010 06:37 23,9 C -1,6 C -1,3 C 85 % 0 % 1005 hPa 0,0 l/m 0,0 km/h (0 Bft)
11.03.2010 06:40 23,9 C -1,6 C -1,2 C 85 % 0 % 1005 hPa 0,3 l/m 0,3 km/h (0 Bft)
11.03.2010 06:43 24,0 C -1,6 C -1,2 C 85 % 0 % 1005 hPa 0,0 l/m 0,3 km/h (0 Bft)
11.03.2010 06:46 23,9 C -1,6 C -1,2 C 85 % 0 % 1005 hPa 0,0 l/m 0,4 km/h (0 Bft)
11.03.2010 06:49 23,9 C -1,6 C -1,2 C 85 % 0 % 1005 hPa 0,0 l/m 0,6 km/h (0 Bft)
11.03.2010 06:52 23,9 C -1,7 C -1,2 C 85 % 0 % 1005 hPa 0,3 l/m 0,1 km/h (0 Bft)
11.03.2010 06:55 23,8 C -1,7 C -1,2 C 85 % 0 % 1005 hPa 0,0 l/m 0,0 km/h (0 Bft)
11.03.2010 06:58 22,8 C -1,7 C -1,2 C 86 % 0 % 1005 hPa 0,0 l/m 0,0 km/h (0 Bft)
11.03.2010 07:01 20,6 C -1,6 C -1,2 C 86 % 0 % 1005 hPa 0,0 l/m 0,0 km/h (0 Bft)
11.03.2010 07:04 19,8 C -1,6 C -1,1 C 86 % 0 % 1005 hPa 0,0 l/m 0,0 km/h (0 Bft)
11.03.2010 07:07 19,2 C -1,6 C -1,1 C 86 % 0 % 1005 hPa 0,0 l/m 0,7 km/h (0 Bft)
11.03.2010 07:10 18,7 C -1,6 C -1,1 C 87 % 0 % 1005 hPa 0,0 l/m 0,1 km/h (0 Bft)
11.03.2010 07:13 18,2 C -1,6 C -1,1 C 86 % 0 % 1005 hPa 0,0 l/m 0,1 km/h (0 Bft)
11.03.2010 07:16 17,9 C -1,6 C -1,1 C 86 % 0 % 1005 hPa 0,3 l/m 0,0 km/h (0 Bft)
11.03.2010 07:19 17,6 C -1,4 C -1,1 C 86 % 0 % 1005 hPa 0,0 l/m 0,0 km/h (0 Bft)
11.03.2010 07:22 17,3 C -1,5 C -1,0 C 86 % 0 % 1005 hPa 0,0 l/m 0,0 km/h (0 Bft)
11.03.2010 07:25 17,2 C -1,4 C -1,0 C 85 % 0 % 1005 hPa 0,0 l/m 0,2 km/h (0 Bft)
11.03.2010 07:28 16,9 C -1,4 C -1,0 C 85 % 0 % 1005 hPa 0,0 l/m 0,0 km/h (0 Bft)
11.03.2010 07:31 17,2 C -1,4 C -1,0 C 85 % 0 % 1005 hPa 0,0 l/m 0,0 km/h (0 Bft)
11.03.2010 07:34 18,0 C -1,4 C -1,0 C 85 % 0 % 1005 hPa 0,3 l/m 0,0 km/h (0 Bft)
11.03.2010 07:37 18,8 C -1,4 C -1,0 C 85 % 0 % 1005 hPa 0,0 l/m 0,3 km/h (0 Bft)
11.03.2010 07:40 19,5 C -1,4 C -0,9 C 85 % 0 % 1005 hPa 0,0 l/m 0,2 km/h (0 Bft)
11.03.2010 07:43 20,1 C -1,3 C -0,9 C 85 % 0 % 1005 hPa 0,0 l/m 0,0 km/h (0 Bft)
11.03.2010 07:46 20,6 C -1,4 C -0,9 C 85 % 0 % 1005 hPa 0,0 l/m 0,0 km/h (0 Bft)
11.03.2010 07:49 21,1 C -1,3 C -0,9 C 85 % 0 % 1005 hPa 0,0 l/m 0,0 km/h (0 Bft)
11.03.2010 07:52 21,4 C -1,2 C -0,9 C 85 % 0 % 1005 hPa 0,0 l/m 0,0 km/h (0 Bft)
11.03.2010 07:55 21,8 C -1,1 C -0,8 C 85 % 0 % 1005 hPa 0,3 l/m 0,0 km/h (0 Bft)
11.03.2010 07:58 22,0 C -1,0 C -0,8 C 85 % 0 % 1005 hPa 0,0 l/m 0,0 km/h (0 Bft)
11.03.2010 08:01 22,1 C -1,0 C -0,8 C 85 % 0 % 1005 hPa 0,0 l/m 0,0 km/h (0 Bft)
11.03.2010 08:04 22,2 C -1,0 C -0,7 C 85 % 0 % 1005 hPa 0,0 l/m 0,0 km/h (0 Bft)
11.03.2010 08:07 22,3 C -1,0 C -0,7 C 85 % 0 % 1005 hPa 0,0 l/m 0,0 km/h (0 Bft)
11.03.2010 08:10 22,3 C -0,9 C -0,7 C 85 % 0 % 1005 hPa 0,0 l/m 0,0 km/h (0 Bft)
11.03.2010 08:13 22,3 C -0,8 C -0,7 C 84 % 0 % 1005 hPa 0,0 l/m 0,0 km/h (0 Bft)
11.03.2010 08:16 22,3 C -0,8 C -0,7 C 84 % 0 % 1005 hPa 0,3 l/m 0,0 km/h (0 Bft)
11.03.2010 08:19 22,2 C -0,7 C -0,6 C 84 % 0 % 1005 hPa 0,0 l/m 0,0 km/h (0 Bft)
11.03.2010 08:22 22,1 C -0,7 C -0,6 C 84 % 0 % 1005 hPa 0,0 l/m 0,0 km/h (0 Bft)
11.03.2010 08:25 22,0 C -0,7 C -0,5 C 84 % 0 % 1005 hPa 0,0 l/m 0,0 km/h (0 Bft)
11.03.2010 08:28 22,0 C -0,8 C -0,5 C 84 % 0 % 1005 hPa 0,0 l/m 0,0 km/h (0 Bft)
11.03.2010 08:31 21,9 C -0,7 C -0,5 C 84 % 0 % 1005 hPa 0,0 l/m 0,0 km/h (0 Bft)
11.03.2010 08:34 21,8 C -0,7 C -0,5 C 84 % 0 % 1005 hPa 0,0 l/m 0,0 km/h (0 Bft)
11.03.2010 08:37 21,8 C -0,5 C -0,5 C 84 % 0 % 1005 hPa 0,0 l/m 0,0 km/h (0 Bft)
11.03.2010 08:40 21,7 C -0,5 C -0,4 C 84 % 0 % 1005 hPa 0,3 l/m 0,0 km/h (0 Bft)
11.03.2010 08:43 21,7 C -0,4 C -0,4 C 84 % 0 % 1005 hPa 0,0 l/m 0,0 km/h (0 Bft)
11.03.2010 08:46 21,5 C -0,3 C -0,4 C 84 % 0 % 1006 hPa 0,0 l/m 0,0 km/h (0 Bft)
11.03.2010 08:49 21,5 C -0,4 C -0,3 C 84 % 0 % 1006 hPa 0,0 l/m 0,0 km/h (0 Bft)
11.03.2010 08:52 21,4 C -0,3 C -0,3 C 84 % 0 % 1006 hPa 0,0 l/m 0,0 km/h (0 Bft)
11.03.2010 08:55 21,4 C -0,4 C -0,3 C 84 % 0 % 1006 hPa 0,0 l/m 0,0 km/h (0 Bft)
11.03.2010 08:58 21,3 C -0,4 C -0,3 C 84 % 0 % 1006 hPa 0,3 l/m 0,0 km/h (0 Bft)
11.03.2010 09:01 21,3 C -0,3 C -0,3 C 84 % 0 % 1006 hPa 0,0 l/m 0,0 km/h (0 Bft)
11.03.2010 09:04 21,2 C -0,2 C -0,2 C 84 % 0 % 1006 hPa 0,0 l/m 0,0 km/h (0 Bft)
11.03.2010 09:07 21,2 C 0,0 C -0,2 C 84 % 0 % 1006 hPa 0,0 l/m 0,0 km/h (0 Bft)
11.03.2010 09:10 21,2 C 0,0 C -0,2 C 83 % 0 % 1006 hPa 0,0 l/m 0,0 km/h (0 Bft)
11.03.2010 09:13 21,1 C 0,1 C -0,2 C 83 % 0 % 1006 hPa 0,0 l/m 0,0 km/h (0 Bft)
11.03.2010 09:16 21,0 C 0,1 C -0,2 C 83 % 0 % 1006 hPa 0,0 l/m 0,0 km/h (0 Bft)
11.03.2010 09:19 21,0 C 0,2 C -0,2 C 83 % 0 % 1006 hPa 0,0 l/m 0,0 km/h (0 Bft)
11.03.2010 09:22 21,0 C 0,1 C -0,2 C 83 % 0 % 1006 hPa 0,0 l/m 0,0 km/h (0 Bft)
11.03.2010 09:25 21,0 C 0,1 C -0,1 C 83 % 0 % 1006 hPa 0,0 l/m 0,0 km/h (0 Bft)
11.03.2010 09:28 20,9 C 0,1 C -0,1 C 83 % 0 % 1006 hPa 0,0 l/m 0,0 km/h (0 Bft)
11.03.2010 09:31 20,9 C 0,2 C -0,1 C 83 % 0 % 1006 hPa 0,3 l/m 0,0 km/h (0 Bft)
11.03.2010 09:34 20,9 C 0,3 C -0,1 C 83 % 0 % 1006 hPa 0,0 l/m 0,0 km/h (0 Bft)
11.03.2010 09:37 20,9 C 0,3 C -0,1 C 83 % 0 % 1006 hPa 0,0 l/m 0,0 km/h (0 Bft)
11.03.2010 09:40 20,8 C 0,3 C -0,1 C 83 % 0 % 1006 hPa 0,0 l/m 0,0 km/h (0 Bft)
11.03.2010 09:43 20,8 C 0,4 C 0,0 C 83 % 0 % 1006 hPa 0,0 l/m 0,0 km/h (0 Bft)
11.03.2010 09:46 20,8 C 0,4 C -0,1 C 83 % 0 % 1006 hPa 0,0 l/m 0,0 km/h (0 Bft)
11.03.2010 09:49 20,7 C 0,4 C 0,0 C 83 % 0 % 1006 hPa 0,0 l/m 0,0 km/h (0 Bft)
11.03.2010 09:52 20,8 C 0,5 C 0,0 C 82 % 0 % 1006 hPa 0,0 l/m 0,0 km/h (0 Bft)
11.03.2010 09:55 20,7 C 0,5 C 0,0 C 83 % 0 % 1006 hPa 0,0 l/m 0,0 km/h (0 Bft)
11.03.2010 09:58 20,7 C 0,6 C 0,0 C 83 % 0 % 1006 hPa 0,3 l/m 0,0 km/h (0 Bft)
11.03.2010 10:01 20,7 C 0,7 C 0,0 C 82 % 0 % 1006 hPa 0,0 l/m 0,0 km/h (0 Bft)
11.03.2010 10:04 20,7 C 0,9 C 0,0 C 82 % 0 % 1006 hPa 0,0 l/m 0,0 km/h (0 Bft)
11.03.2010 10:07 20,8 C 1,0 C 0,0 C 82 % 0 % 1006 hPa 0,0 l/m 0,0 km/h (0 Bft)
11.03.2010 10:10 20,7 C 1,0 C 0,0 C 81 % 0 % 1006 hPa 0,0 l/m 0,0 km/h (0 Bft)
11.03.2010 10:13 20,7 C 1,0 C 0,0 C 81 % 0 % 1006 hPa 0,0 l/m 0,0 km/h (0 Bft)
11.03.2010 10:16 20,8 C 1,2 C 0,0 C 80 % 0 % 1006 hPa 0,0 l/m 0,0 km/h (0 Bft)
11.03.2010 10:19 20,8 C 1,2 C 0,0 C 80 % 0 % 1006 hPa 0,0 l/m 0,0 km/h (0 Bft)
11.03.2010 10:22 20,8 C 1,2 C 0,0 C 80 % 0 % 1006 hPa 0,0 l/m 0,0 km/h (0 Bft)
11.03.2010 10:25 20,8 C 1,5 C 0,0 C 80 % 0 % 1006 hPa 0,0 l/m 0,0 km/h (0 Bft)
11.03.2010 10:28 20,8 C 1,4 C 0,0 C 79 % 0 % 1006 hPa 0,0 l/m 0,0 km/h (0 Bft)
11.03.2010 10:31 20,7 C 1,2 C 0,0 C 79 % 0 % 1006 hPa 0,0 l/m 0,0 km/h (0 Bft)
11.03.2010 10:34 20,7 C 1,2 C 0,0 C 80 % 0 % 1006 hPa 0,0 l/m 0,0 km/h (0 Bft)
11.03.2010 10:37 20,8 C 1,1 C 0,0 C 79 % 0 % 1006 hPa 0,0 l/m 0,0 km/h (0 Bft)
11.03.2010 10:40 20,7 C 1,1 C 0,0 C 79 % 0 % 1006 hPa 0,0 l/m 0,0 km/h (0 Bft)
11.03.2010 10:43 20,7 C 1,0 C 0,1 C 79 % 0 % 1006 hPa 0,0 l/m 0,0 km/h (0 Bft)
11.03.2010 10:46 20,7 C 1,2 C 0,0 C 79 % 0 % 1006 hPa 0,0 l/m 0,0 km/h (0 Bft)
11.03.2010 10:49 20,7 C 1,2 C 0,1 C 79 % 0 % 1006 hPa 0,0 l/m 0,0 km/h (0 Bft)
11.03.2010 10:52 20,6 C 1,5 C 0,1 C 79 % 0 % 1006 hPa 0,0 l/m 0,0 km/h (0 Bft)
11.03.2010 10:55 20,6 C 1,5 C 0,1 C 79 % 0 % 1006 hPa 0,0 l/m 0,0 km/h (0 Bft)
11.03.2010 10:58 20,6 C 1,7 C 0,1 C 78 % 0 % 1006 hPa 0,0 l/m 0,0 km/h (0 Bft)
11.03.2010 11:01 20,6 C 1,8 C 0,0 C 77 % 0 % 1006 hPa 0,0 l/m 0,0 km/h (0 Bft)
11.03.2010 11:04 20,6 C 1,9 C 0,0 C 77 % 0 % 1006 hPa 0,0 l/m 0,0 km/h (0 Bft)
11.03.2010 11:07 20,6 C 1,9 C 0,0 C 77 % 0 % 1006 hPa 0,0 l/m 0,0 km/h (0 Bft)
11.03.2010 11:10 20,5 C 2,1 C 0,1 C 77 % 0 % 1006 hPa 0,0 l/m 0,0 km/h (0 Bft)
11.03.2010 11:13 20,5 C 2,1 C 0,1 C 77 % 0 % 1006 hPa 0,0 l/m 0,0 km/h (0 Bft)
11.03.2010 11:16 20,5 C 2,2 C 0,1 C 76 % 0 % 1006 hPa 0,0 l/m 0,0 km/h (0 Bft)
11.03.2010 11:19 20,5 C 2,3 C 0,1 C 75 % 0 % 1006 hPa 0,0 l/m 0,0 km/h (0 Bft)
11.03.2010 11:22 20,5 C 2,4 C 0,1 C 76 % 0 % 1006 hPa 0,0 l/m 0,0 km/h (0 Bft)
11.03.2010 11:25 20,5 C 2,5 C 0,1 C 75 % 0 % 1006 hPa 0,0 l/m 0,0 km/h (0 Bft)
11.03.2010 11:28 20,4 C 2,5 C 0,1 C 75 % 0 % 1006 hPa 0,0 l/m 0,0 km/h (0 Bft)
11.03.2010 11:31 20,4 C 2,3 C 0,1 C 75 % 0 % 1006 hPa 0,0 l/m 0,0 km/h (0 Bft)
11.03.2010 11:34 20,5 C 2,2 C 0,1 C 75 % 0 % 1006 hPa 0,0 l/m 0,0 km/h (0 Bft)
11.03.2010 11:37 20,6 C 2,5 C 0,1 C 75 % 0 % 1006 hPa 0,0 l/m 0,0 km/h (0 Bft)
11.03.2010 11:40 20,6 C 2,7 C 0,1 C 75 % 0 % 1006 hPa 0,0 l/m 0,0 km/h (0 Bft)
11.03.2010 11:43 20,6 C 2,8 C 0,1 C 74 % 0 % 1006 hPa 0,0 l/m 0,0 km/h (0 Bft)
11.03.2010 11:46 20,6 C 2,8 C 0,1 C 74 % 0 % 1006 hPa 0,0 l/m 0,0 km/h (0 Bft)
11.03.2010 11:49 20,6 C 2,8 C 0,1 C 74 % 0 % 1006 hPa 0,0 l/m 0,0 km/h (0 Bft)
11.03.2010 11:52 20,7 C 2,8 C 0,1 C 74 % 0 % 1006 hPa 0,0 l/m 0,0 km/h (0 Bft)
11.03.2010 11:55 20,6 C 2,8 C 0,1 C 73 % 0 % 1006 hPa 0,0 l/m 0,0 km/h (0 Bft)
11.03.2010 11:58 20,6 C 2,8 C 0,1 C 73 % 0 % 1006 hPa 0,0 l/m 0,0 km/h (0 Bft)
11.03.2010 12:01 20,6 C 2,7 C 0,1 C 73 % 0 % 1006 hPa 0,0 l/m 0,0 km/h (0 Bft)
11.03.2010 12:04 20,5 C 2,7 C 0,1 C 73 % 0 % 1006 hPa 0,0 l/m 0,0 km/h (0 Bft)
11.03.2010 12:07 20,5 C 2,7 C 0,1 C 73 % 0 % 1006 hPa 0,0 l/m 0,0 km/h (0 Bft)
11.03.2010 12:10 20,5 C 2,7 C 0,1 C 74 % 0 % 1006 hPa 0,0 l/m 0,0 km/h (0 Bft)
11.03.2010 12:13 20,5 C 2,9 C 0,1 C 74 % 0 % 1006 hPa 0,0 l/m 0,0 km/h (0 Bft)
11.03.2010 12:16 20,4 C 2,9 C 0,1 C 74 % 0 % 1006 hPa 0,0 l/m 0,0 km/h (0 Bft)
11.03.2010 12:19 20,4 C 3,0 C 0,1 C 74 % 0 % 1006 hPa 0,0 l/m 0,0 km/h (0 Bft)
11.03.2010 12:22 20,4 C 3,0 C 0,1 C 74 % 0 % 1006 hPa 0,3 l/m 0,0 km/h (0 Bft)
11.03.2010 12:25 20,4 C 3,0 C 0,1 C 74 % 0 % 1005 hPa 0,0 l/m 0,0 km/h (0 Bft)
11.03.2010 12:28 20,4 C 2,9 C 0,1 C 73 % 0 % 1006 hPa 0,0 l/m 0,0 km/h (0 Bft)
11.03.2010 12:31 20,4 C 2,9 C 0,1 C 73 % 0 % 1006 hPa 0,0 l/m 0,0 km/h (0 Bft)
11.03.2010 12:34 20,4 C 2,9 C 0,1 C 73 % 0 % 1006 hPa 0,0 l/m 0,0 km/h (0 Bft)
11.03.2010 12:37 20,4 C 2,8 C 0,1 C 73 % 0 % 1006 hPa 0,0 l/m 0,0 km/h (0 Bft)
11.03.2010 12:40 20,4 C 2,8 C 0,1 C 73 % 0 % 1006 hPa 0,0 l/m 0,0 km/h (0 Bft)
11.03.2010 12:43 20,4 C 2,8 C 0,1 C 74 % 0 % 1006 hPa 0,0 l/m 0,0 km/h (0 Bft)
11.03.2010 12:46 20,4 C 2,9 C 0,1 C 74 % 0 % 1006 hPa 0,0 l/m 0,0 km/h (0 Bft)
11.03.2010 12:49 20,4 C 2,9 C 0,1 C 73 % 0 % 1006 hPa 0,0 l/m 0,0 km/h (0 Bft)
11.03.2010 12:52 20,4 C 2,9 C 0,1 C 73 % 0 % 1005 hPa 0,0 l/m 0,0 km/h (0 Bft)
11.03.2010 12:55 20,4 C 2,7 C 0,1 C 73 % 0 % 1005 hPa 0,0 l/m 0,0 km/h (0 Bft)
11.03.2010 12:58 20,4 C 2,7 C 0,1 C 73 % 0 % 1005 hPa 0,0 l/m 0,0 km/h (0 Bft)
11.03.2010 13:01 20,5 C 2,5 C 0,1 C 74 % 0 % 1005 hPa 0,0 l/m 0,1 km/h (0 Bft)
11.03.2010 13:04 20,5 C 2,5 C 0,1 C 75 % 0 % 1005 hPa 0,0 l/m 0,3 km/h (0 Bft)
11.03.2010 13:07 20,5 C 2,3 C 0,1 C 75 % 0 % 1006 hPa 0,0 l/m 0,0 km/h (0 Bft)
11.03.2010 13:10 20,5 C 2,3 C 0,1 C 76 % 0 % 1005 hPa 0,0 l/m 0,0 km/h (0 Bft)
11.03.2010 13:13 20,5 C 2,3 C 0,1 C 76 % 0 % 1005 hPa 0,0 l/m 0,0 km/h (0 Bft)
11.03.2010 13:16 20,4 C 2,3 C 0,1 C 77 % 0 % 1006 hPa 0,0 l/m 0,0 km/h (0 Bft)
11.03.2010 13:19 20,4 C 2,3 C 0,1 C 77 % 0 % 1006 hPa 0,0 l/m 0,0 km/h (0 Bft)
11.03.2010 13:22 20,4 C 2,3 C 0,1 C 77 % 0 % 1006 hPa 0,0 l/m 0,0 km/h (0 Bft)
11.03.2010 13:25 20,4 C 2,3 C 0,1 C 77 % 0 % 1006 hPa 0,0 l/m 0,0 km/h (0 Bft)
11.03.2010 13:28 20,4 C 2,3 C 0,1 C 77 % 0 % 1006 hPa 0,0 l/m 0,0 km/h (0 Bft)
11.03.2010 13:31 20,4 C 2,3 C 0,1 C 77 % 0 % 1006 hPa 0,0 l/m 0,0 km/h (0 Bft)
11.03.2010 13:34 20,3 C 2,3 C 0,1 C 77 % 0 % 1005 hPa 0,0 l/m 0,1 km/h (0 Bft)
11.03.2010 13:37 20,3 C 2,1 C 0,1 C 77 % 0 % 1005 hPa 0,0 l/m 0,0 km/h (0 Bft)
11.03.2010 13:40 20,2 C 2,1 C 0,1 C 77 % 0 % 1005 hPa 0,0 l/m 0,0 km/h (0 Bft)
11.03.2010 13:43 20,2 C 2,1 C 0,1 C 77 % 0 % 1005 hPa 0,0 l/m 0,0 km/h (0 Bft)
11.03.2010 13:46 20,2 C 2,0 C 0,1 C 76 % 0 % 1005 hPa 0,0 l/m 0,1 km/h (0 Bft)
11.03.2010 13:49 20,2 C 2,0 C 0,1 C 76 % 0 % 1005 hPa 0,0 l/m 0,0 km/h (0 Bft)
11.03.2010 13:52 20,2 C 1,9 C 0,1 C 77 % 0 % 1005 hPa 0,0 l/m 0,0 km/h (0 Bft)
11.03.2010 13:55 20,2 C 1,9 C 0,1 C 77 % 0 % 1005 hPa 0,0 l/m 0,0 km/h (0 Bft)
11.03.2010 13:58 20,2 C 1,8 C 0,1 C 77 % 0 % 1005 hPa 0,0 l/m 0,0 km/h (0 Bft)
11.03.2010 14:01 20,2 C 1,6 C 0,1 C 76 % 0 % 1005 hPa 0,0 l/m 0,0 km/h (0 Bft)
11.03.2010 14:04 20,3 C 1,6 C 0,1 C 77 % 0 % 1005 hPa 0,0 l/m 0,0 km/h (0 Bft)
11.03.2010 14:07 20,3 C 1,6 C 0,1 C 77 % 0 % 1005 hPa 0,0 l/m 0,0 km/h (0 Bft)
11.03.2010 14:10 20,4 C 1,6 C 0,1 C 77 % 0 % 1005 hPa 0,0 l/m 0,0 km/h (0 Bft)
11.03.2010 14:13 20,4 C 1,6 C 0,1 C 77 % 0 % 1005 hPa 0,0 l/m 0,0 km/h (0 Bft)
11.03.2010 14:16 20,4 C 1,5 C 0,1 C 77 % 0 % 1005 hPa 0,0 l/m 2,1 km/h (1 Bft)
11.03.2010 14:19 20,4 C 1,5 C 0,1 C 77 % 0 % 1005 hPa 0,0 l/m 0,4 km/h (0 Bft)
11.03.2010 14:22 20,4 C 1,5 C 0,1 C 77 % 0 % 1005 hPa 0,0 l/m 0,3 km/h (0 Bft)
11.03.2010 14:25 20,4 C 1,5 C 0,1 C 77 % 0 % 1005 hPa 0,0 l/m 0,0 km/h (0 Bft)
11.03.2010 14:28 20,4 C 1,4 C 0,1 C 77 % 0 % 1005 hPa 0,0 l/m 0,0 km/h (0 Bft)
11.03.2010 14:31 20,3 C 1,4 C 0,0 C 78 % 0 % 1005 hPa 0,0 l/m 0,7 km/h (0 Bft)
11.03.2010 14:34 20,3 C 1,3 C 0,1 C 78 % 0 % 1005 hPa 0,0 l/m 0,4 km/h (0 Bft)
11.03.2010 14:37 20,3 C 1,3 C 0,1 C 78 % 0 % 1005 hPa 0,0 l/m 0,1 km/h (0 Bft)
11.03.2010 14:40 20,2 C 1,4 C 0,1 C 79 % 0 % 1006 hPa 0,0 l/m 0,0 km/h (0 Bft)
11.03.2010 14:43 20,3 C 1,4 C 0,1 C 79 % 0 % 1006 hPa 0,0 l/m 0,0 km/h (0 Bft)
11.03.2010 14:46 20,2 C 1,3 C 0,1 C 79 % 0 % 1006 hPa 0,0 l/m 0,0 km/h (0 Bft)
11.03.2010 14:49 20,2 C 1,2 C 0,1 C 79 % 0 % 1006 hPa 0,0 l/m 0,0 km/h (0 Bft)
11.03.2010 14:52 20,3 C 1,2 C 0,1 C 79 % 0 % 1006 hPa 0,0 l/m 0,0 km/h (0 Bft)
11.03.2010 14:55 20,5 C 1,2 C 0,0 C 79 % 0 % 1006 hPa 0,0 l/m 0,0 km/h (0 Bft)
11.03.2010 14:58 20,8 C 1,2 C 0,1 C 79 % 0 % 1006 hPa 0,0 l/m 0,0 km/h (0 Bft)
11.03.2010 15:01 21,2 C 1,2 C 0,1 C 79 % 0 % 1006 hPa 0,0 l/m 0,0 km/h (0 Bft)
11.03.2010 15:04 21,4 C 1,2 C 0,1 C 79 % 0 % 1005 hPa 0,0 l/m 0,0 km/h (0 Bft)
11.03.2010 15:07 21,8 C 1,2 C 0,1 C 79 % 0 % 1005 hPa 0,0 l/m 0,8 km/h (0 Bft)
11.03.2010 15:10 22,2 C 1,0 C 0,1 C 80 % 0 % 1005 hPa 0,0 l/m 3,9 km/h (1 Bft)
11.03.2010 15:13 22,4 C 0,9 C 0,1 C 80 % 0 % 1005 hPa 0,0 l/m 3,8 km/h (1 Bft)
11.03.2010 15:16 22,7 C 0,9 C 0,1 C 82 % 0 % 1006 hPa 0,0 l/m 4,3 km/h (1 Bft)
11.03.2010 15:19 23,2 C 0,8 C 0,1 C 82 % 0 % 1006 hPa 0,0 l/m 3,9 km/h (1 Bft)
11.03.2010 15:22 23,4 C 0,8 C 0,1 C 82 % 0 % 1005 hPa 0,0 l/m 0,7 km/h (0 Bft)
11.03.2010 15:25 23,6 C 0,8 C 0,1 C 83 % 0 % 1005 hPa 0,0 l/m 4,2 km/h (1 Bft)
11.03.2010 15:28 23,9 C 0,7 C 0,1 C 83 % 0 % 1005 hPa 0,0 l/m 3,0 km/h (1 Bft)
11.03.2010 15:31 24,1 C 0,8 C 0,1 C 83 % 0 % 1005 hPa 0,0 l/m 5,0 km/h (1 Bft)
11.03.2010 15:34 24,3 C 0,7 C 0,1 C 83 % 0 % 1005 hPa 0,0 l/m 5,6 km/h (1 Bft)
11.03.2010 15:37 24,6 C 0,7 C 0,1 C 84 % 0 % 1005 hPa 0,0 l/m 4,5 km/h (1 Bft)
11.03.2010 15:40 24,6 C 0,7 C 0,1 C 84 % 0 % 1005 hPa 0,0 l/m 4,0 km/h (1 Bft)
11.03.2010 15:43 25,0 C 0,7 C 0,1 C 84 % 0 % 1005 hPa 0,0 l/m 3,6 km/h (1 Bft)
11.03.2010 15:46 25,3 C 0,7 C 0,1 C 84 % 0 % 1005 hPa 0,0 l/m 3,8 km/h (1 Bft)
11.03.2010 15:49 25,5 C 0,6 C 0,1 C 84 % 0 % 1005 hPa 0,0 l/m 4,3 km/h (1 Bft)
11.03.2010 15:52 25,7 C 0,6 C 0,1 C 84 % 0 % 1005 hPa 0,0 l/m 4,2 km/h (1 Bft)
11.03.2010 15:55 25,8 C 0,6 C 0,1 C 85 % 0 % 1005 hPa 0,0 l/m 4,5 km/h (1 Bft)
11.03.2010 15:58 25,9 C 0,6 C 0,1 C 85 % 0 % 1005 hPa 0,0 l/m 4,5 km/h (1 Bft)
11.03.2010 16:01 25,9 C 0,5 C 0,1 C 85 % 0 % 1005 hPa 0,0 l/m 1,8 km/h (1 Bft)
11.03.2010 16:04 25,9 C 0,6 C 0,1 C 85 % 0 % 1005 hPa 0,0 l/m 3,4 km/h (1 Bft)
11.03.2010 16:07 25,9 C 0,6 C 0,1 C 85 % 0 % 1005 hPa 0,0 l/m 5,4 km/h (1 Bft)
11.03.2010 16:10 25,9 C 0,6 C 0,1 C 85 % 0 % 1005 hPa 0,0 l/m 2,9 km/h (1 Bft)
11.03.2010 16:13 25,9 C 0,5 C 0,1 C 85 % 0 % 1005 hPa 0,0 l/m 2,5 km/h (1 Bft)
11.03.2010 16:16 25,7 C 0,5 C 0,1 C 85 % 0 % 1005 hPa 0,0 l/m 5,8 km/h (2 Bft)
11.03.2010 16:19 25,6 C 0,5 C 0,1 C 85 % 0 % 1005 hPa 0,0 l/m 3,6 km/h (1 Bft)
11.03.2010 16:22 25,6 C 0,5 C 0,1 C 85 % 0 % 1005 hPa 0,0 l/m 2,2 km/h (1 Bft)
11.03.2010 16:25 25,6 C 0,5 C 0,1 C 85 % 0 % 1005 hPa 0,0 l/m 3,5 km/h (1 Bft)
11.03.2010 16:28 25,5 C 0,5 C 0,1 C 85 % 0 % 1005 hPa 0,0 l/m 4,8 km/h (1 Bft)
11.03.2010 16:31 25,5 C 0,4 C 0,1 C 86 % 0 % 1006 hPa 0,0 l/m 5,3 km/h (1 Bft)
11.03.2010 16:34 25,4 C 0,3 C 0,1 C 86 % 0 % 1006 hPa 0,0 l/m 6,1 km/h (2 Bft)
11.03.2010 16:37 25,4 C 0,3 C 0,1 C 86 % 0 % 1006 hPa 0,0 l/m 6,5 km/h (2 Bft)
11.03.2010 16:40 25,4 C 0,3 C 0,1 C 87 % 0 % 1006 hPa 0,0 l/m 5,8 km/h (2 Bft)
11.03.2010 16:43 25,3 C 0,2 C 0,0 C 87 % 0 % 1006 hPa 0,0 l/m 6,3 km/h (2 Bft)
11.03.2010 16:46 25,2 C 0,2 C 0,1 C 87 % 0 % 1006 hPa 0,0 l/m 6,3 km/h (2 Bft)
11.03.2010 16:49 25,2 C 0,2 C 0,0 C 87 % 0 % 1006 hPa 0,3 l/m 6,5 km/h (2 Bft)
11.03.2010 16:52 25,1 C 0,1 C 0,1 C 87 % 0 % 1006 hPa 0,0 l/m 7,3 km/h (2 Bft)
11.03.2010 16:55 25,1 C 0,2 C 0,0 C 87 % 0 % 1006 hPa 0,0 l/m 7,3 km/h (2 Bft)
11.03.2010 16:58 25,0 C 0,2 C 0,0 C 87 % 0 % 1005 hPa 0,0 l/m 7,8 km/h (2 Bft)
11.03.2010 17:01 24,9 C 0,2 C 0,1 C 87 % 0 % 1006 hPa 0,0 l/m 6,9 km/h (2 Bft)
11.03.2010 17:04 24,8 C 0,1 C 0,1 C 87 % 0 % 1006 hPa 0,0 l/m 6,5 km/h (2 Bft)
11.03.2010 17:07 24,5 C 0,1 C 0,1 C 87 % 0 % 1006 hPa 0,0 l/m 6,6 km/h (2 Bft)
11.03.2010 17:10 23,6 C 0,2 C 0,1 C 88 % 0 % 1006 hPa 0,0 l/m 5,7 km/h (1 Bft)
11.03.2010 17:13 23,6 C 0,2 C 0,1 C 88 % 0 % 1006 hPa 0,0 l/m 5,7 km/h (1 Bft)
11.03.2010 17:16 23,6 C 0,2 C 0,1 C 87 % 0 % 1006 hPa 0,0 l/m 4,8 km/h (1 Bft)
11.03.2010 17:19 23,8 C 0,1 C 0,1 C 87 % 0 % 1006 hPa 0,0 l/m 4,5 km/h (1 Bft)
11.03.2010 17:22 23,9 C 0,0 C 0,1 C 87 % 0 % 1006 hPa 0,0 l/m 5,1 km/h (1 Bft)
11.03.2010 17:25 24,0 C 0,0 C 0,1 C 87 % 0 % 1006 hPa 0,0 l/m 1,9 km/h (1 Bft)
11.03.2010 17:28 24,1 C 0,0 C 0,1 C 88 % 0 % 1006 hPa 0,0 l/m 2,7 km/h (1 Bft)
11.03.2010 17:31 24,2 C 0,0 C 0,1 C 88 % 0 % 1006 hPa 0,0 l/m 0,3 km/h (0 Bft)
11.03.2010 17:34 24,2 C 0,0 C 0,1 C 88 % 0 % 1006 hPa 0,0 l/m 3,0 km/h (1 Bft)
11.03.2010 17:37 24,2 C 0,0 C 0,1 C 88 % 0 % 1006 hPa 0,0 l/m 3,5 km/h (1 Bft)
11.03.2010 17:40 24,3 C 0,1 C 0,1 C 88 % 0 % 1006 hPa 0,0 l/m 2,7 km/h (1 Bft)
11.03.2010 17:43 24,2 C 0,0 C 0,1 C 88 % 0 % 1006 hPa 0,0 l/m 0,4 km/h (0 Bft)
11.03.2010 17:46 24,3 C 0,0 C 0,1 C 88 % 0 % 1006 hPa 0,0 l/m 0,1 km/h (0 Bft)
11.03.2010 17:49 24,2 C 0,0 C 0,1 C 88 % 0 % 1006 hPa 0,0 l/m 0,3 km/h (0 Bft)
11.03.2010 17:52 24,2 C 0,0 C 0,1 C 88 % 0 % 1006 hPa 0,0 l/m 0,3 km/h (0 Bft)
11.03.2010 17:55 24,3 C 0,0 C 0,1 C 88 % 0 % 1006 hPa 0,0 l/m 0,3 km/h (0 Bft)
11.03.2010 17:58 24,3 C 0,0 C 0,1 C 88 % 0 % 1006 hPa 0,3 l/m 0,1 km/h (0 Bft)
11.03.2010 18:01 24,3 C 0,0 C 0,1 C 88 % 0 % 1006 hPa 0,0 l/m 0,5 km/h (0 Bft)
11.03.2010 18:04 24,2 C -0,2 C 0,1 C 88 % 0 % 1006 hPa 0,0 l/m 0,0 km/h (0 Bft)
11.03.2010 18:07 24,2 C -0,2 C 0,1 C 88 % 0 % 1006 hPa 0,0 l/m 0,1 km/h (0 Bft)
11.03.2010 18:10 24,2 C -0,2 C 0,1 C 89 % 0 % 1006 hPa 0,0 l/m 0,2 km/h (0 Bft)
11.03.2010 18:13 24,2 C -0,2 C 0,1 C 89 % 0 % 1006 hPa 0,0 l/m 1,3 km/h (1 Bft)
11.03.2010 18:16 24,2 C -0,2 C 0,1 C 89 % 0 % 1006 hPa 0,0 l/m 0,0 km/h (0 Bft)
11.03.2010 18:19 24,2 C -0,3 C 0,1 C 90 % 0 % 1006 hPa 0,0 l/m 0,0 km/h (0 Bft)
11.03.2010 18:22 24,2 C -0,4 C 0,1 C 90 % 0 % 1006 hPa 0,0 l/m 0,3 km/h (0 Bft)
11.03.2010 18:25 24,2 C -0,3 C 0,1 C 90 % 0 % 1006 hPa 0,0 l/m 2,5 km/h (1 Bft)
11.03.2010 18:28 24,2 C -0,4 C 0,1 C 90 % 0 % 1006 hPa 0,0 l/m 2,5 km/h (1 Bft)
11.03.2010 18:31 24,2 C -0,5 C 0,1 C 90 % 0 % 1006 hPa 0,0 l/m 6,5 km/h (2 Bft)
11.03.2010 18:34 24,2 C -0,6 C 0,0 C 90 % 0 % 1006 hPa 0,0 l/m 4,9 km/h (1 Bft)
11.03.2010 18:37 24,2 C -0,6 C 0,1 C 90 % 0 % 1006 hPa 0,0 l/m 5,0 km/h (1 Bft)
11.03.2010 18:40 24,2 C -0,6 C 0,1 C 90 % 0 % 1006 hPa 0,0 l/m 3,0 km/h (1 Bft)
11.03.2010 18:43 24,2 C -0,6 C 0,1 C 90 % 0 % 1006 hPa 0,0 l/m 3,0 km/h (1 Bft)
11.03.2010 18:46 24,2 C -0,6 C 0,0 C 90 % 0 % 1006 hPa 0,0 l/m 2,2 km/h (1 Bft)
11.03.2010 18:49 24,2 C -0,7 C 0,1 C 90 % 0 % 1006 hPa 0,0 l/m 5,5 km/h (1 Bft)
11.03.2010 18:52 24,3 C -0,7 C 0,0 C 91 % 0 % 1006 hPa 0,0 l/m 6,8 km/h (2 Bft)
11.03.2010 18:55 24,3 C -0,8 C 0,0 C 91 % 0 % 1006 hPa 0,0 l/m 4,9 km/h (1 Bft)
11.03.2010 18:58 24,3 C -0,8 C 0,1 C 91 % 0 % 1006 hPa 0,3 l/m 5,5 km/h (1 Bft)
11.03.2010 19:01 24,3 C -0,8 C 0,1 C 91 % 0 % 1006 hPa 0,0 l/m 6,7 km/h (2 Bft)
11.03.2010 19:04 24,3 C -0,8 C 0,1 C 91 % 0 % 1006 hPa 0,0 l/m 5,8 km/h (2 Bft)
11.03.2010 19:07 24,4 C -0,8 C 0,1 C 91 % 0 % 1007 hPa 0,0 l/m 4,8 km/h (1 Bft)
11.03.2010 19:10 24,4 C -0,8 C 0,1 C 91 % 0 % 1006 hPa 0,0 l/m 4,3 km/h (1 Bft)
11.03.2010 19:13 24,3 C -0,8 C 0,1 C 91 % 0 % 1006 hPa 0,0 l/m 6,1 km/h (2 Bft)
11.03.2010 19:16 24,4 C -0,9 C 0,1 C 91 % 0 % 1006 hPa 0,0 l/m 5,0 km/h (1 Bft)
11.03.2010 19:19 24,4 C -0,9 C 0,1 C 91 % 0 % 1007 hPa 0,0 l/m 4,7 km/h (1 Bft)
11.03.2010 19:22 24,3 C -0,9 C 0,1 C 91 % 0 % 1007 hPa 0,0 l/m 4,7 km/h (1 Bft)
11.03.2010 19:25 24,3 C -0,9 C 0,1 C 91 % 0 % 1007 hPa 0,0 l/m 3,1 km/h (1 Bft)
11.03.2010 19:28 24,4 C -0,9 C 0,1 C 91 % 0 % 1007 hPa 0,0 l/m 0,1 km/h (0 Bft)
11.03.2010 19:31 24,4 C -0,9 C 0,1 C 91 % 0 % 1007 hPa 0,0 l/m 0,1 km/h (0 Bft)
11.03.2010 19:34 24,4 C -0,9 C 0,1 C 91 % 0 % 1007 hPa 0,0 l/m 0,1 km/h (0 Bft)
11.03.2010 19:37 24,4 C -0,9 C 0,1 C 91 % 0 % 1007 hPa 0,0 l/m 1,5 km/h (1 Bft)
11.03.2010 19:40 24,4 C -0,9 C 0,1 C 91 % 0 % 1007 hPa 0,0 l/m 4,6 km/h (1 Bft)
11.03.2010 19:43 24,4 C -0,9 C 0,1 C 91 % 0 % 1007 hPa 0,0 l/m 3,1 km/h (1 Bft)
11.03.2010 19:46 24,4 C -0,9 C 0,1 C 91 % 0 % 1007 hPa 0,0 l/m 5,0 km/h (1 Bft)
11.03.2010 19:49 24,4 C -1,0 C 0,1 C 91 % 0 % 1007 hPa 0,0 l/m 5,0 km/h (1 Bft)
11.03.2010 19:52 24,4 C -1,0 C 0,1 C 91 % 0 % 1007 hPa 0,0 l/m 2,8 km/h (1 Bft)
11.03.2010 19:55 24,5 C -1,0 C 0,1 C 91 % 0 % 1007 hPa 0,0 l/m 1,4 km/h (1 Bft)
11.03.2010 19:58 24,4 C -1,0 C 0,1 C 91 % 0 % 1007 hPa 0,0 l/m 2,4 km/h (1 Bft)
11.03.2010 20:01 24,4 C -1,0 C 0,0 C 91 % 0 % 1007 hPa 0,0 l/m 3,1 km/h (1 Bft)
11.03.2010 20:04 24,4 C -1,0 C 0,1 C 91 % 0 % 1007 hPa 0,0 l/m 1,8 km/h (1 Bft)
11.03.2010 20:07 24,4 C -1,0 C 0,1 C 91 % 0 % 1007 hPa 0,0 l/m 2,0 km/h (1 Bft)
11.03.2010 20:10 24,5 C -1,0 C 0,1 C 91 % 0 % 1007 hPa 0,0 l/m 1,9 km/h (1 Bft)
11.03.2010 20:13 24,6 C -1,0 C 0,1 C 91 % 0 % 1007 hPa 0,0 l/m 0,4 km/h (0 Bft)
11.03.2010 20:16 24,5 C -1,0 C 0,1 C 91 % 0 % 1007 hPa 0,0 l/m 1,6 km/h (1 Bft)
11.03.2010 20:19 24,6 C -1,0 C 0,1 C 91 % 0 % 1007 hPa 0,0 l/m 0,6 km/h (0 Bft)
11.03.2010 20:22 24,6 C -1,0 C 0,1 C 91 % 0 % 1007 hPa 0,0 l/m 0,0 km/h (0 Bft)
11.03.2010 20:25 24,6 C -1,0 C 0,1 C 91 % 0 % 1007 hPa 0,0 l/m 0,0 km/h (0 Bft)
11.03.2010 20:28 24,6 C -1,0 C 0,1 C 91 % 0 % 1007 hPa 0,0 l/m 0,0 km/h (0 Bft)
11.03.2010 20:31 24,6 C -1,0 C 0,1 C 91 % 0 % 1007 hPa 0,0 l/m 0,0 km/h (0 Bft)
11.03.2010 20:34 24,6 C -1,0 C 0,1 C 91 % 0 % 1007 hPa 0,0 l/m 0,0 km/h (0 Bft)
11.03.2010 20:37 24,6 C -1,0 C 0,1 C 91 % 0 % 1007 hPa 0,0 l/m 0,0 km/h (0 Bft)
11.03.2010 20:40 24,6 C -1,0 C 0,1 C 91 % 0 % 1007 hPa 0,3 l/m 0,0 km/h (0 Bft)
11.03.2010 20:43 24,6 C -1,0 C 0,1 C 91 % 0 % 1007 hPa 0,0 l/m 0,0 km/h (0 Bft)
11.03.2010 20:46 24,6 C -1,0 C 0,1 C 91 % 0 % 1007 hPa 0,0 l/m 0,0 km/h (0 Bft)
11.03.2010 20:49 24,6 C -1,0 C 0,1 C 91 % 0 % 1007 hPa 0,0 l/m 0,0 km/h (0 Bft)
11.03.2010 20:52 24,6 C -1,0 C 0,1 C 91 % 0 % 1007 hPa 0,0 l/m 0,0 km/h (0 Bft)
11.03.2010 20:55 24,6 C -1,0 C 0,1 C 91 % 0 % 1007 hPa 0,0 l/m 0,0 km/h (0 Bft)
11.03.2010 20:58 24,6 C -1,0 C 0,1 C 91 % 0 % 1007 hPa 0,0 l/m 0,0 km/h (0 Bft)
11.03.2010 21:01 24,6 C -1,0 C 0,1 C 91 % 0 % 1007 hPa 0,0 l/m 0,0 km/h (0 Bft)
11.03.2010 21:04 24,6 C -1,0 C 0,1 C 91 % 0 % 1007 hPa 0,0 l/m 0,0 km/h (0 Bft)
11.03.2010 21:07 24,6 C -0,9 C 0,1 C 91 % 0 % 1007 hPa 0,0 l/m 0,0 km/h (0 Bft)
11.03.2010 21:10 24,6 C -0,9 C 0,1 C 90 % 0 % 1007 hPa 0,0 l/m 0,0 km/h (0 Bft)
11.03.2010 21:13 24,6 C -0,9 C 0,1 C 90 % 0 % 1007 hPa 0,0 l/m 0,0 km/h (0 Bft)
11.03.2010 21:16 24,7 C -0,8 C 0,1 C 90 % 0 % 1007 hPa 0,3 l/m 0,0 km/h (0 Bft)
11.03.2010 21:19 24,7 C -0,8 C 0,0 C 90 % 0 % 1007 hPa 0,0 l/m 0,0 km/h (0 Bft)
11.03.2010 21:22 24,7 C -0,8 C 0,0 C 90 % 0 % 1007 hPa 0,0 l/m 0,0 km/h (0 Bft)
11.03.2010 21:25 24,6 C -0,8 C 0,1 C 90 % 0 % 1007 hPa 0,0 l/m 0,0 km/h (0 Bft)
11.03.2010 21:28 24,7 C -0,8 C 0,1 C 90 % 0 % 1007 hPa 0,0 l/m 0,0 km/h (0 Bft)
11.03.2010 21:31 24,6 C -0,8 C 0,1 C 90 % 0 % 1007 hPa 0,0 l/m 0,0 km/h (0 Bft)
11.03.2010 21:34 24,6 C -0,8 C 0,0 C 90 % 0 % 1007 hPa 0,0 l/m 0,0 km/h (0 Bft)
11.03.2010 21:37 24,6 C -0,9 C 0,1 C 90 % 0 % 1007 hPa 0,0 l/m 0,0 km/h (0 Bft)
11.03.2010 21:40 24,6 C -0,9 C 0,1 C 90 % 0 % 1007 hPa 0,0 l/m 0,0 km/h (0 Bft)
11.03.2010 21:43 24,6 C -0,9 C 0,1 C 90 % 0 % 1007 hPa 0,0 l/m 0,0 km/h (0 Bft)
11.03.2010 21:46 24,6 C -0,9 C 0,1 C 90 % 0 % 1007 hPa 0,0 l/m 0,0 km/h (0 Bft)
11.03.2010 21:49 24,6 C -1,0 C 0,1 C 90 % 0 % 1007 hPa 0,0 l/m 0,0 km/h (0 Bft)
11.03.2010 21:52 24,6 C -1,0 C 0,1 C 90 % 0 % 1007 hPa 0,0 l/m 0,0 km/h (0 Bft)
11.03.2010 21:55 24,6 C -1,0 C 0,1 C 90 % 0 % 1007 hPa 0,0 l/m 0,0 km/h (0 Bft)
11.03.2010 21:58 24,6 C -1,0 C 0,1 C 90 % 0 % 1007 hPa 0,0 l/m 0,0 km/h (0 Bft)
11.03.2010 22:01 24,6 C -1,0 C 0,1 C 90 % 0 % 1007 hPa 0,0 l/m 0,0 km/h (0 Bft)
11.03.2010 22:04 24,6 C -1,0 C 0,1 C 90 % 0 % 1007 hPa 0,0 l/m 0,0 km/h (0 Bft)
11.03.2010 22:07 24,6 C -1,0 C 0,1 C 90 % 0 % 1007 hPa 0,0 l/m 0,0 km/h (0 Bft)
11.03.2010 22:10 24,6 C -1,0 C 0,0 C 90 % 0 % 1007 hPa 0,0 l/m 0,0 km/h (0 Bft)
11.03.2010 22:13 24,6 C -1,0 C 0,1 C 90 % 0 % 1007 hPa 0,0 l/m 0,0 km/h (0 Bft)
11.03.2010 22:16 24,5 C -1,0 C 0,1 C 90 % 0 % 1007 hPa 0,0 l/m 0,0 km/h (0 Bft)
11.03.2010 22:19 24,6 C -1,0 C 0,1 C 90 % 0 % 1007 hPa 0,0 l/m 0,0 km/h (0 Bft)
11.03.2010 22:22 24,6 C -1,0 C 0,1 C 90 % 0 % 1007 hPa 0,0 l/m 0,0 km/h (0 Bft)
11.03.2010 22:25 24,6 C -1,0 C 0,1 C 90 % 0 % 1007 hPa 0,3 l/m 0,0 km/h (0 Bft)
11.03.2010 22:28 24,6 C -1,0 C 0,1 C 90 % 0 % 1007 hPa 0,0 l/m 0,0 km/h (0 Bft)
11.03.2010 22:31 24,6 C -1,0 C 0,1 C 90 % 0 % 1007 hPa 0,0 l/m 0,0 km/h (0 Bft)
11.03.2010 22:34 24,6 C -1,0 C 0,1 C 90 % 0 % 1007 hPa 0,0 l/m 0,0 km/h (0 Bft)
11.03.2010 22:37 24,6 C -1,0 C 0,1 C 90 % 0 % 1007 hPa 0,0 l/m 0,0 km/h (0 Bft)
11.03.2010 22:40 24,6 C -1,0 C 0,1 C 90 % 0 % 1007 hPa 0,0 l/m 0,0 km/h (0 Bft)
11.03.2010 22:43 24,6 C -1,0 C 0,1 C 90 % 0 % 1007 hPa 0,0 l/m 0,0 km/h (0 Bft)
11.03.2010 22:46 24,6 C -0,9 C 0,1 C 90 % 0 % 1007 hPa 0,0 l/m 0,0 km/h (0 Bft)
11.03.2010 22:49 24,6 C -0,9 C 0,1 C 90 % 0 % 1007 hPa 0,0 l/m 0,0 km/h (0 Bft)
11.03.2010 22:52 24,6 C -0,9 C 0,0 C 90 % 0 % 1007 hPa 0,0 l/m 0,0 km/h (0 Bft)
11.03.2010 22:55 24,6 C -0,9 C 0,1 C 90 % 0 % 1007 hPa 0,0 l/m 0,0 km/h (0 Bft)
11.03.2010 22:58 24,6 C -0,9 C 0,1 C 90 % 0 % 1007 hPa 0,0 l/m 0,0 km/h (0 Bft)
11.03.2010 23:01 24,5 C -0,9 C 0,0 C 90 % 0 % 1007 hPa 0,0 l/m 0,0 km/h (0 Bft)
11.03.2010 23:04 24,5 C -0,8 C 0,0 C 90 % 0 % 1007 hPa 0,0 l/m 0,0 km/h (0 Bft)
11.03.2010 23:07 24,5 C -0,8 C 0,1 C 90 % 0 % 1007 hPa 0,0 l/m 0,0 km/h (0 Bft)
11.03.2010 23:10 24,6 C -0,8 C 0,1 C 90 % 0 % 1007 hPa 0,0 l/m 0,0 km/h (0 Bft)
11.03.2010 23:13 24,6 C -0,8 C 0,1 C 90 % 0 % 1007 hPa 0,0 l/m 0,0 km/h (0 Bft)
11.03.2010 23:16 24,6 C -0,8 C 0,1 C 90 % 0 % 1007 hPa 0,0 l/m 0,0 km/h (0 Bft)
11.03.2010 23:19 24,6 C -0,8 C 0,1 C 90 % 0 % 1007 hPa 0,0 l/m 0,0 km/h (0 Bft)
11.03.2010 23:22 24,6 C -0,8 C 0,1 C 90 % 0 % 1007 hPa 0,3 l/m 0,0 km/h (0 Bft)
11.03.2010 23:25 24,6 C -0,9 C 0,1 C 90 % 0 % 1007 hPa 0,0 l/m 0,0 km/h (0 Bft)
11.03.2010 23:28 24,6 C -0,9 C 0,0 C 90 % 0 % 1007 hPa 0,0 l/m 0,0 km/h (0 Bft)
11.03.2010 23:31 24,6 C -0,9 C 0,1 C 90 % 0 % 1007 hPa 0,0 l/m 0,0 km/h (0 Bft)
11.03.2010 23:34 24,6 C -1,0 C 0,1 C 89 % 0 % 1007 hPa 0,0 l/m 0,0 km/h (0 Bft)
11.03.2010 23:37 24,6 C -1,0 C 0,1 C 90 % 0 % 1007 hPa 0,0 l/m 0,0 km/h (0 Bft)
11.03.2010 23:40 24,6 C -1,0 C 0,1 C 90 % 0 % 1007 hPa 0,0 l/m 0,0 km/h (0 Bft)
11.03.2010 23:43 24,6 C -1,0 C 0,1 C 90 % 0 % 1007 hPa 0,0 l/m 0,0 km/h (0 Bft)
11.03.2010 23:46 24,6 C -1,1 C 0,1 C 91 % 0 % 1007 hPa 0,0 l/m 0,0 km/h (0 Bft)
11.03.2010 23:49 24,6 C -1,1 C 0,1 C 91 % 0 % 1007 hPa 0,0 l/m 0,0 km/h (0 Bft)
11.03.2010 23:52 24,6 C -1,1 C 0,1 C 91 % 0 % 1007 hPa 0,0 l/m 0,0 km/h (0 Bft)
11.03.2010 23:55 24,6 C -1,1 C 0,1 C 91 % 0 % 1007 hPa 0,0 l/m 0,0 km/h (0 Bft)
11.03.2010 23:58 24,6 C -1,1 C 0,1 C 91 % 0 % 1007 hPa 0,0 l/m 0,0 km/h (0 Bft)
_ Min-Zeit 07:28 06:19 00:39 00:09 - 02:48 - 05:40
Minimum _ 16,9 C -1,8 C -2,7 C 56 % - 1004 hPa - 0,0 km/h (0 Bft)
_ Max-Zeit 15:58 12:19 10:43 18:52 00:00 19:07 05:40 02:57
Maximum _ 25,9 C 3,0 C 0,1 C 91 % 0 % 1007 hPa 0,3 l/m 32,2 km/h
O-SO (5 Bft)
Durchschnitt _ 23,0 C 0,1 C -0,6 C 80 % #0 min. 1006 hPa #7,5 l/m 5,0 km/h (1 Bft)